Showing default

GAOFEN 12-05, 61571

Orbit data source: Space-Track

GAOFEN 12-05, 61571 is a payload satellite owned by PLA SSF (CN) in SSO that was launched on Tue, 15 Oct 2024 UTC via a CHANG ZHENG 4C launch vehicle from the Jiuquan Satellite Launch Center, China (JSC). Payload-class satellites include a variety of spacecraft equipped with specific instruments for various scientific and technological missions. These include communications satellites like Starlink; space stations such as the ISS; scientific satellites like the Hubble; Earth observation satellites from companies like Planet Labs, Umbra, and HawkEye 360; GPS; miniature CubeSats for education and research; and military/defense satellites.

Loading next visibility...
Identifier
61571, 2024-186A
Orbit
SSO
Country
Flag of CNCN / PRC
Related business
Manufacturer
SAST
Mission
Operational Defense Radar Imaging
Bus & Motor
CS-L3000B?, Unknown motor
Mass
~3,000 kg wet, ~3,000 kg dry
Launch date (UTC)
2024-10-15 (2 years ago)
Launch vehicle
CHANG ZHENG 4C
Launch site
Jiuquan Satellite Launch Center, China (JSC)
Object type
Payload
Rocket body
Debris
Shape & HBR
Box + 3 Pan, Unknown HBR
Radar Cross Section
10.846 m², Large (>1 m²)

Expand to show TLE details & history
Last TLE update: 8 hours ago

TLE from 8 hours ago
0 GAOFEN 12-05
1 61571U 24186A   26171.51568154  .00000265  00000-0  40911-4 0  9995
2 61571  97.9092 179.6130 0000696  89.7968 270.3325 14.80959690 89834
Epoch: 2026-06-20T12:22Z
TLE epoch observation values (Epoch: 2026-06-20T12:22:34.885Z)
Latitude
0.00008°
Longitude
85.23844°
Altitude
629.316 km
Speed
7.544 km/s
True Right ascension
11h 58m 27s
True Declination
0° 00' 00"
Sunlit
Object was in daylight at epoch
Visualization orbit readout
Latitude
Unknown
Longitude
Unknown
Altitude
Unknown
Speed
Unknown
Apparent Right ascension
Unknown
Apparent Declination
Unknown
Sunlit
N/A
Visualization observer readout
Local Sidereal Time
07:22:03
Azimuth
Unknown
Elevation
Unknown
Doppler factor
Unknown
Orbital elements
Apogee altitude
623.824 km
Perigee altitude
622.849 km
Semi-major axis
7,001.473 km
Eccentricity
0.00007
Inclination
97.9092°
RAAN
179.613°
Arg. of periapsis
89.7968°
True anomaly
270.32452°
Mean anomaly
270.3325°
Eccentric anomaly
270.32851°
Mean motion
3.70475 °/min
Orbital period
97.17 mins
BSTAR
0.000040911
Loading maneuver chart data...
Computing Atmospheric mass density...
Loading historical data...
Loading historical data...
Loading historical data...
Loading historical data...
Loading historical data...
Loading historical data...
Loading historical data...
Other satellites on launch #186 in the year 2024 (2024-10-15 UTC)

Documentation

Showing up to 5 results
|